Welcome to the New NWS' Forecast!
Most changes are behind the scenes, but click here for differences you might notice.
Latest weather observations around

Birmingham, Birmingham International Airport (KBHM)

Using English Units (Switch to International System of Units)
Date/ Time (CST) Wind (mph) Vis. (mi) Weather Sky Cond. Temp (°F) Rel. Humidity Wind Chill (°F) Heat Index (°F) Pressure Precip. (in)
Air Dwpt 6 hour Altimeter (inHg) Sea level (inHg) 1 hr 3 hr 6 hr
Max Min
Nov 18 01:53 6 10 Cloudy OVC025 59 47     64%     30 29.98      
Nov 18 00:53 S 7 10 Mostly Cloudy BKN027 58 44     60%     30 29.99      
Nov 18 00:19 SSE 7 10 Mostly Cloudy BKN029 58 43     57%     30.01        
Nov 17 23:53 SSE 8 10 Clear CLR 58 43     57%     30.02 30.01      
Nov 17 22:53 6 10 Clear CLR 59 40     49%     30.02 30.01      
Nov 17 21:53 SSE 5 10 Clear CLR 60 41     49%     30.05 30.03      
Nov 17 20:53 SSE 6 10 Clear CLR 60 42     51%     30.05 30.04      
Nov 17 19:53 SE 5 10 Clear CLR 61 40     46%     30.05 30.04      
Notice The following observation data may not be complete
Nov 17 18:53 3 10 Clear CLR   39      %     30.06 30.06      
Nov 17 17:53 SE 6 10 Clear CLR 61 40     46%     30.06 30.06      
Nov 17 16:53 SE 5 10 Mostly Clear FEW250 63 38     40%     30.07 30.07      
Nov 17 15:53 S 6 10 Clear CLR 67 37     33%     30.07 30.06      
Nov 17 14:53 SSE 6 10 Clear CLR 69 34     27%     30.07 30.06      
Nov 17 13:53 3 10 Partly Cloudy SCT250 68 35     30%     30.08 30.07      
Nov 17 12:53 3 10 Partly Cloudy SCT250 67        %     30.11 30.1      
Nov 17 11:53 3 10 Mostly Clear FEW250 65        %     30.13 30.12      
Nov 17 10:53 5 10 Clear CLR 63 37     38%     30.17 30.16      
Nov 17 09:53 ESE 3 10 Clear CLR 59 37     44%     30.2 30.2      
Nov 17 08:53 E 6 10 Mostly Clear FEW250 55 39     55%     30.21 30.21      
Nov 17 07:53 Calm 10 Mostly Clear FEW250 47 41     80%     30.22 30.22      
Nov 17 06:53 Calm 10 Mostly Clear FEW250 40 38     93%     30.21 30.21      
Nov 17 05:53 Calm 10 Mostly Clear FEW250 39 37     93%     30.19 30.19      
Nov 17 04:53 Calm 10 Clear CLR 38 36     92%     30.16 30.16      
Nov 17 03:53 Calm 10 Partly Cloudy SCT250 40 37     89%     30.17 30.16      
Nov 17 02:53 Calm 10 Mostly Clear FEW250 40 37     89%     30.16 30.16      
Nov 17 01:53 Calm 10 Mostly Clear FEW250 40 39     97%     30.18 30.17      
Nov 17 00:53 Calm 10 Clear CLR 42 39     89%     30.18 30.17      
Nov 16 23:53 Calm 10 Clear CLR 42 38     85%     30.19 30.18      
Nov 16 22:53 Calm 10 Clear CLR 43 39     86%     30.18 30.17      
Nov 16 21:53 Calm 10 Clear CLR 47 42     83%     30.18 30.18      
Nov 16 20:53 ESE 3 10 Clear CLR 50 42     74% 49   30.18 30.17      
Nov 16 19:53 Calm 10 Clear CLR 52 43     71%     30.16 30.16      
Nov 16 18:53 Calm 10 Clear CLR 56 42     60%     30.16 30.15      
Nov 16 17:53 NNE 10 10 Mostly Clear FEW250 59 43     55%     30.15 30.14      
Nov 16 16:53 N 6 10 Partly Cloudy FEW050 SCT250 58 47     67%     30.14 30.13      
Nov 16 15:53 NNW 8 10 Partly Cloudy FEW045 SCT250 67 46     47%     30.13 30.12      
Nov 16 14:53 NW 5 10 Mostly Clear FEW030 FEW250 67 48     51%     30.13 30.12      
Nov 16 13:53 N 7 10 Mostly Clear FEW033 FEW250 66 49     54%     30.14 30.12      
Nov 16 12:53 WNW 6 10 Partly Cloudy SCT027 63 50     63%     30.15 30.14      
Nov 16 12:46 3 10 Partly Cloudy SCT027 65 50     58%     30.15        
Nov 16 11:53 WNW 8 10 Mostly Cloudy BKN029 63 50     63%     30.17 30.15      
Nov 16 10:53 NW 3 10 Cloudy OVC028 62 50     65%     30.19 30.18      
Nov 16 09:53 N 3 10 Cloudy OVC027 60 49     67%     30.21 30.2      
Nov 16 08:53 NNE 5 10 Cloudy OVC028 59 48     67%     30.2 30.19      
Nov 16 07:53 Calm 10 Cloudy OVC029 58 48     70%     30.18 30.17      
Nov 16 07:41 Calm 9 Cloudy OVC029 57 48     72%     30.18        
Nov 16 06:53 Calm 9 Cloudy OVC033 56 49     77%     30.17 30.16      
Nov 16 05:53 Calm 9 Cloudy OVC032 55 49     80%     30.16 30.15      
Nov 16 04:53 Calm 10 Cloudy OVC032 55 49     80%     30.16 30.15      
Nov 16 03:53 N 3 9 Cloudy OVC033 55 48     77%     30.15 30.14      
Nov 16 02:53 Calm 9 Cloudy OVC032 55 50     83%     30.14 30.13      
Nov 16 01:53 Calm 9 Cloudy OVC032 55 50     83%     30.13 30.12      
Nov 16 00:53 Calm 8 Mostly Cloudy BKN070 55 50     83%     30.13 30.12      
Nov 15 23:53 Calm 9 Cloudy SCT049 OVC070 56 49     77%     30.14 30.13      
Nov 15 22:53 Calm 9 Cloudy OVC070 57 48     72%     30.14 30.13      
Nov 15 21:53 Calm 9 Cloudy BKN038 BKN050 OVC070 58 48     70%     30.14 30.13      
Nov 15 20:53 SE 3 10 Cloudy FEW044 OVC060 57 48     72%     30.14 30.14      
Nov 15 19:53 NNW 5 10 Cloudy OVC065 57 48     72%     30.14 30.13      
Nov 15 18:53 Calm 10 Mostly Cloudy BKN070 BKN085 57 47     69%     30.13 30.12      
Nov 15 17:53 Calm 10 Mostly Cloudy FEW080 FEW095 BKN120 58 45     62%     30.12 30.12      
Nov 15 16:53 W 7 10 Cloudy SCT095 OVC120 61 43     52%     30.12 30.11      
Nov 15 15:53 S 5 10 Cloudy BKN085 OVC120 61 42     50%     30.11 30.1      
Nov 15 14:53 SSW 6 10 Mostly Cloudy SCT110 BKN250 63 41     45%     30.09 30.08      
Nov 15 13:53 WSW 7 10 Mostly Cloudy SCT140 BKN250 63 42     46%     30.12 30.11      
Nov 15 12:53 3 10 Mostly Cloudy FEW140 BKN250 61 42     50%     30.13 30.11      
Nov 15 11:53 SE 7 10 Mostly Cloudy FEW140 BKN250 59 42     53%     30.15 30.14      
Nov 15 10:53 S 8 10 Mostly Cloudy BKN250 57 42     57%     30.18 30.17      
Nov 15 09:53 S 9 10 Mostly Cloudy BKN250 56 40     55%     30.2 30.19      
Nov 15 08:53 ESE 11 10 Mostly Cloudy BKN250 52 40     63%     30.21 30.21      
Nov 15 07:53 SE 7 10 Mostly Cloudy BKN250 50 41     71% 47   30.21 30.21      
Nov 15 06:53 5 10 Mostly Cloudy BKN250 48 41     77% 46   30.2 30.19      
Nov 15 05:53 Calm 10 Mostly Clear FEW250 44 41     89%     30.2 30.2      
Nov 15 04:53 Calm 10 Clear CLR 45 42     90%     30.2 30.19      
Nov 15 03:53 E 6 10 Clear CLR 49 43     80% 46   30.17 30.16      
Nov 15 02:53 ENE 5 10 Clear CLR 49 43     80% 47   30.17 30.16      
Jun 12 03:53 SSE 5 10 Mostly Clear FEW040 74 71     91%   75 30.15 30.13      
Jun 11 23:53 SSE 5 10 Mostly Clear FEW050 79 70     74%   82 30.15 30.12      
Jun 11 07:53 SE 9 10 Partly Cloudy SCT065 SCT250 75 66     74%   76 30.17 30.14      
Jun 10 13:53 ESE 9 10 Mostly Cloudy SCT060 BKN075 86 58     39%   85 30.09 30.06      
Jun 10 11:53 3 10 Partly Cloudy SCT070 82        %     30.11 30.09      
Jun 08 22:53 Calm 10 Clear CLR 68 59     73%     29.95 29.93      
Jun 08 20:53 N 7 10 Mostly Clear FEW250 70 58     66%     29.91 29.89      
Jun 07 18:53   10 Mostly Clear FEW065 FEW250 79 54     42%   79 29.87 29.85      
Jun 06 03:11 NE 5 10 Mostly Cloudy FEW007 FEW022 BKN028 71 70     96%   72 29.81        
Jun 06 02:53 NNE 5 10 Partly Cloudy SCT120 71 70     96%   72 29.81 29.78      
Jun 05 19:53 Calm 10 Light Rain FEW020 SCT120 OVC250 72 70     93%   73 29.82 29.8 0    
Jun 05 14:53 Calm 10 Cloudy BKN065 BKN100 OVC250 75 70     84%   76 29.84 29.82 0